Theta_e
335 335 341 344 342 340 343 343 350 350 348 343 344 343 342 343 343 344 346 347 347 348 344 344 349 349 348 343 342 344 345 345
332 333 336 340 340 342 343 349 351 350 351 350 343 344 345 347 343 344 345 347 345 349 346 348 350 349 347 347 345 344 344 343
332 334 332 336 341 340 340 340 344 345 350 344 343 346 345 345 343 343 343 349 348 349 348 347 349 348 347 348 348 346 346 344
328 328 333 332 337 337 339 342 340 342 344 343 341 342 343 343 342 343 344 346 348 350 349 349 349 348 347 349 345 344 343 343
325 322 327 333 332 335 331 332 338 338 336 341 341 341 342 341 342 343 345 349 350 350 350 350 349 348 348 350 340 343 341 341
326 324 323 332 332 332 329 328 335 336 335 342 341 340 344 343 343 344 347 346 351 351 350 350 349 349 348 350 343 340 339 340
320 322 323 324 324 325 327 328 336 335 339 339 339 339 343 343 345 346 350 350 351 351 351 350 350 350 350 350 349 339 337 340
324 324 325 325 324 324 323 333 340 339 340 337 338 341 341 343 345 347 348 349 350 351 351 351 350 350 350 350 350 338 339 340
322 324 324 323 324 326 324 325 338 341 338 338 340 342 341 343 344 347 348 349 350 350 351 351 350 350 350 350 351 349 341 338
321 323 325 322 322 325 324 324 337 338 337 339 337 341 343 344 345 344 345 348 349 350 350 350 350 350 350 350 350 350 349 348
322 321 322 325 325 326 325 325 333 337 337 339 340 341 342 344 344 344 344 346 349 350 349 350 350 349 349 350 350 350 350 350
323 331 328 326 327 329 325 331 341 336 338 337 339 338 340 344 339 342 344 345 346 350 350 350 349 349 349 350 350 350 350 351
323 326 326 326 330 331 335 337 340 337 337 337 337 337 342 340 338 340 339 344 347 350 350 350 349 349 349 349 349 349 350 351
322 327 327 328 332 333 339 339 340 339 341 344 342 343 342 342 341 340 341 341 349 350 349 348 348 349 349 349 349 349 349 351
322 322 323 328 329 340 339 341 341 343 344 344 344 344 341 342 341 341 340 343 350 349 348 348 348 348 349 349 350 349 350 352
321 320 324 322 336 336 338 339 338 338 339 340 342 343 344 343 343 341 345 350 351 348 348 348 348 348 347 348 350 350 351 352
319 318 321 321 321 331 332 333 335 336 335 335 336 338 340 343 343 342 342 344 348 352 352 349 349 350 350 351 350 352 352 351
318 318 318 319 320 325 330 330 329 329 327 328 332 334 334 335 336 337 342 341 343 342 346 350 352 352 352 350 352 351 352 351
317 318 318 318 319 319 320 321 328 328 327 326 325 325 325 327 328 331 333 338 345 349 343 343 343 350 352 353 352 352 351 349
Wind_Speed
4 6 8 3 4 3 4 1 3 3 8 9 4 15 17 10 12 20 41 44 46 50 34 37 40 35 22 21 19 18 17 19
4 2 1 11 8 5 2 4 3 3 7 6 4 0 3 2 4 35 39 44 41 44 39 36 40 29 24 20 14 15 18 16
3 3 8 3 4 5 4 5 5 2 6 8 6 5 4 4 11 27 34 39 44 43 43 38 40 29 27 21 15 15 15 18
8 10 8 7 7 8 5 6 5 4 7 5 8 9 9 11 6 13 34 37 41 44 44 45 37 29 28 22 17 13 13 14
9 6 3 5 7 6 2 5 7 6 6 1 5 8 15 13 10 9 31 33 39 38 43 40 37 34 32 24 17 14 16 18
12 9 3 2 4 7 6 4 5 7 9 1 7 7 15 13 7 22 37 45 43 45 42 43 38 34 32 26 19 16 18 20
8 8 5 6 5 5 7 7 7 9 9 7 9 7 17 14 16 37 39 44 43 44 42 43 38 34 32 26 22 20 22 24
4 3 2 1 3 6 6 3 1 3 7 5 13 11 11 2 26 30 36 43 44 46 46 42 41 38 34 28 25 26 25 25
4 2 4 5 5 3 4 4 6 5 9 8 10 8 10 10 24 25 21 31 44 46 48 47 44 39 35 32 27 28 29 23
3 4 5 8 5 6 5 7 8 2 9 14 15 17 24 19 19 12 14 29 34 48 47 44 42 38 34 34 31 29 29 25
3 4 6 7 7 3 4 11 6 12 15 11 22 23 10 17 5 10 17 18 33 48 43 43 43 39 36 36 34 31 27 26
3 2 5 9 8 13 4 2 5 11 16 8 8 5 5 27 27 34 23 16 30 45 45 44 44 40 37 38 36 34 28 26
3 2 6 5 7 6 6 6 9 0 13 21 5 8 19 34 32 28 24 12 20 47 47 44 41 40 39 37 36 32 29 28
2 4 4 1 5 3 7 2 27 25 20 21 15 17 22 31 44 35 23 13 26 43 43 42 39 38 38 38 33 29 28 31
7 5 9 16 6 20 23 26 26 33 23 19 19 18 14 23 31 42 26 20 34 40 39 39 38 37 36 35 32 31 29 30
4 7 11 29 13 17 27 30 27 26 21 17 15 14 26 30 27 31 27 32 36 39 38 40 40 39 34 31 31 31 31 32
3 8 17 28 29 13 20 27 28 25 23 22 18 13 13 15 19 21 23 20 22 32 37 39 41 43 40 37 33 33 32 32
1 8 5 10 22 18 14 17 16 21 21 19 17 17 12 10 8 8 9 11 18 24 27 28 36 41 44 39 39 36 35 35
5 16 18 16 13 22 16 17 9 13 12 12 14 14 13 13 10 6 2 3 4 11 24 35 31 36 43 42 42 41 38 37
Wind_Direction
156 170 142 119 214 144 72 152 118 230 280 307 237 197 196 193 224 185 194 198 203 203 214 211 208 209 205 204 204 206 206 206
239 163 359 141 179 78 182 223 250 296 293 245 331 198 290 139 102 171 186 191 200 202 200 209 209 205 204 201 206 199 199 196
124 187 201 150 124 48 100 153 157 211 256 224 179 160 288 201 83 179 178 187 193 204 199 209 204 202 202 199 199 193 196 194
200 226 193 188 191 150 135 224 242 165 257 222 188 164 228 263 320 168 189 195 201 198 200 197 202 201 204 197 196 190 194 191
298 342 3 197 197 185 38 86 200 152 260 345 209 158 207 226 245 208 179 183 192 193 192 195 197 201 206 197 186 189 186 184
223 215 187 227 192 201 146 129 192 211 258 84 264 242 167 209 173 177 176 187 191 192 193 197 198 197 197 197 187 187 185 178
211 201 189 191 220 273 186 205 180 228 212 198 224 222 184 123 111 162 171 175 183 188 188 195 196 196 197 195 190 188 185 179
198 208 75 306 308 294 233 111 57 137 235 186 237 263 282 17 132 166 175 180 181 187 186 195 198 195 198 193 194 188 184 179
248 322 34 332 233 245 263 204 147 172 223 178 213 206 236 101 130 151 184 186 183 184 190 195 198 196 201 195 197 200 193 190
201 47 241 241 222 222 222 262 200 150 189 208 115 161 144 133 126 132 181 201 195 188 193 197 200 200 203 199 198 204 204 202
144 177 284 317 290 230 210 287 191 188 201 193 118 123 139 161 202 183 205 205 205 199 202 200 200 201 203 203 202 202 207 207
61 85 231 234 294 291 125 254 298 211 198 146 158 132 217 174 180 221 221 234 220 208 203 201 201 202 203 205 206 204 207 209
139 197 293 249 317 16 95 232 335 341 151 144 148 194 175 176 188 192 210 231 228 208 205 203 201 202 203 207 210 211 207 208
94 111 276 240 4 60 188 182 95 105 123 116 113 180 196 203 206 205 196 215 217 205 201 202 203 202 206 208 210 212 213 208
173 214 285 316 216 151 130 121 110 117 122 119 113 108 164 183 199 209 202 207 203 204 199 203 205 208 210 211 207 207 210 214
33 336 15 30 56 140 142 128 123 121 124 124 116 99 108 123 142 169 174 187 195 203 204 204 208 213 217 212 206 204 205 211
347 344 360 21 13 31 101 109 115 112 110 110 110 99 99 118 121 142 170 174 182 194 207 213 213 213 216 217 212 211 208 210
171 351 345 332 8 24 100 108 110 113 105 101 100 99 98 102 101 97 125 184 203 203 207 205 218 224 219 222 220 214 211 213
331 333 331 334 359 14 23 42 117 123 119 117 108 99 97 93 86 83 47 231 229 231 238 230 231 221 228 225 224 219 217 215